Location: Gleizolles
(44.4833°N, 6.7667°E)
Time: 20:52:05
(UTC+00:00)

A-11 Canister half - Pass Details

Date: 25 June 2024
Orbit: 1524 x 1684 km, 47.3° (Epoch: 18 July)

Event Time Altitude Azimuth Distance (km) Brightness Sun altitude
Rises 16:42:49 0° 291° (WNW) 4,689 12.8 25.3°
Reaches altitude 10° 16:45:53 10° 290° (WNW) 3,697 12.8 24.8°
Maximum altitude 16:55:08 74° 208° (SSW) 1,578 9.6 23.2°
Drops below altitude 10° 17:04:25 10° 125° (SE) 3,715 10.6 21.5°
Sets 17:07:30 0° 124° (SE) 4,712 11.0 21.0°
